This demonstration page uses our WeatherBlox Daily Observations layout. Learn more.

Left ArrowRight Arrow

44.8408, -93.29828

Hourly Observations for April 23, 2019

Temp ( °F °C ) Dew Point ( °F °C ) Humidity (%) Winds ( mph kmh ) Pressure ( in mb ) Visibility ( mi km ) Precip ( " mm )
12:53 am 00:53 Mostly Clear 40 4.4 37 2.8 89 89 N 7 11 30.12 1020 10 16 0.00 0.00
1:53 am 01:53 Mostly Clear 38 3.3 36 2.2 93 93 NW 6 9 30.14 1021 10 16 0.00 0.00
2:53 am 02:53 Clear 39 3.9 36 2.2 89 89 N 9 15 30.13 1020 10 16 0.00 0.00
3:53 am 03:53 Clear 37 2.8 35 1.7 93 93 NNW 6 9 30.14 1021 10 16 0.00 0.00
4:53 am 04:53 Clear 37 2.8 34 1.1 89 89 NNW 6 9 30.14 1021 10 16 0.00 0.00
5:53 am 05:53 Clear 36 2.2 33 0.6 89 89 VRB 3 6 30.15 1021 10 16 0.00 0.00
6:53 am 06:53 Sunny 37 2.8 33 0.6 86 86 N 6 9 30.16 1022 10 16 0.00 0.00
7:53 am 07:53 Sunny 40 4.4 34 1.1 79 79 N 5 7 30.18 1022 10 16 0.00 0.00
8:53 am 08:53 Sunny 44 6.7 36 2.2 73 73 Calm 30.18 1022 10 16 0.00 0.00
9:53 am 09:53 Sunny 48 8.9 37 2.8 66 66 Calm 30.19 1022 10 16 0.00 0.00
10:53 am 10:53 Mostly Sunny 50 10 37 2.8 61 61 Calm 30.19 1022 10 16 0.00 0.00
11:53 am 11:53 Mostly Sunny 53 11.7 36 2.2 52 52 S 3 6 30.17 1022 10 16 0.00 0.00
12:53 pm 12:53 Mostly Sunny 57 13.9 38 3.3 49 49 VRB 5 7 30.14 1021 10 16 0.00 0.00
1:53 pm 13:53 Mostly Sunny 60 15.6 38 3.3 44 44 Calm 30.12 1020 10 16 0.00 0.00
2:53 pm 14:53 Sunny 61 16.1 36 2.2 39 39 SSW 5 7 30.09 1019 10 16 0.00 0.00
3:53 pm 15:53 Mostly Sunny 63 17.2 37 2.8 38 38 S 6 9 30.06 1018 10 16 0.00 0.00
4:53 pm 16:53 Mostly Sunny 64 17.8 37 2.8 37 37 S 8 13 30.04 1017 10 16 0.00 0.00
5:53 pm 17:53 Partly Cloudy 65 18.3 38 3.3 37 37 W 9 15 30.03 1017 10 16 0.00 0.00
6:53 pm 18:53 Partly Cloudy 64 17.8 38 3.3 38 38 SW 9 15 30.02 1017 10 16 0.00 0.00
7:53 pm 19:53 Mostly Sunny 62 16.7 37 2.8 40 40 WSW 9 15 30.01 1016 10 16 0.00 0.00
8:53 pm 20:53 Mostly Clear 61 16.1 36 2.2 39 39 VRB 3 6 30.00 1016 10 16 0.00 0.00
9:53 pm 21:53 Mostly Clear 60 15.6 37 2.8 42 42 SSW 7 11 30.00 1016 10 16 0.00 0.00
10:53 pm 22:53 Mostly Clear 55 12.8 37 2.8 51 51 S 5 7 29.99 1016 10 16 0.00 0.00
11:53 pm 23:53 Mostly Clear 53 11.7 37 2.8 55 55 SSE 6 9 29.98 1015 10 16 0.00 0.00

Powered by AerisWeather